Time,TemperatureF,DewpointF,PressureIn,WindDirection,WindDirectionDegrees,WindSpeedMPH,WindSpeedGustMPH,Humidity,HourlyPrecipIn,Conditions,Clouds,dailyrainin,SoftwareType,DateUTC
2013-02-24 00:12:00,36.6,36.0,29.77,ENE,57,8.0,12.0,96,0.01,,,0.00,weatherlink.com 1.10,2013-02-24 05:12:00,
2013-02-24 00:27:00,36.5,36.0,29.77,NNE,15,4.0,11.0,96,0.00,,,0.00,weatherlink.com 1.10,2013-02-24 05:27:00,
2013-02-24 00:42:00,36.2,35.0,29.77,NNE,30,5.0,11.0,96,0.00,,,0.00,weatherlink.com 1.10,2013-02-24 05:42:00,
2013-02-24 00:57:00,35.9,35.0,29.76,East,101,5.0,9.0,96,0.00,,,0.00,weatherlink.com 1.10,2013-02-24 05:57:00,
2013-02-24 01:13:00,35.6,35.0,29.76,North,358,6.0,9.0,96,0.00,,,0.00,weatherlink.com 1.10,2013-02-24 06:13:00,
2013-02-24 01:28:00,35.5,35.0,29.75,ESE,119,6.0,8.0,96,0.01,,,0.01,weatherlink.com 1.10,2013-02-24 06:28:00,
2013-02-24 01:43:00,35.5,35.0,29.73,NNE,27,6.0,9.0,96,0.01,,,0.01,weatherlink.com 1.10,2013-02-24 06:43:00,
2013-02-24 01:58:00,35.5,35.0,29.73,NNE,18,8.0,9.0,96,0.01,,,0.01,weatherlink.com 1.10,2013-02-24 06:58:00,
2013-02-24 02:13:00,35.6,35.0,29.72,NE,44,2.0,10.0,97,0.01,,,0.01,weatherlink.com 1.10,2013-02-24 07:13:00,
2013-02-24 02:28:00,35.6,35.0,29.71,West,269,1.0,10.0,97,0.01,,,0.02,weatherlink.com 1.10,2013-02-24 07:28:00,
2013-02-24 02:43:00,35.6,35.0,29.70,ESE,104,9.0,9.0,97,0.01,,,0.02,weatherlink.com 1.10,2013-02-24 07:43:00,
2013-02-24 02:58:00,35.4,35.0,29.70,NNE,15,3.0,9.0,97,0.01,,,0.02,weatherlink.com 1.10,2013-02-24 07:58:00,
2013-02-24 03:13:00,35.3,35.0,29.70,NNW,339,5.0,10.0,97,0.01,,,0.02,weatherlink.com 1.10,2013-02-24 08:13:00,
2013-02-24 03:29:00,35.4,35.0,29.69,NNW,341,3.0,8.0,97,0.00,,,0.02,weatherlink.com 1.10,2013-02-24 08:29:00,
2013-02-24 03:43:00,35.5,35.0,29.69,NW,314,3.0,9.0,97,0.00,,,0.02,weatherlink.com 1.10,2013-02-24 08:43:00,
2013-02-24 03:58:00,35.6,35.0,29.68,NNW,327,3.0,9.0,97,0.00,,,0.02,weatherlink.com 1.10,2013-02-24 08:58:00,
2013-02-24 04:13:00,35.7,35.0,29.68,NNE,23,5.0,9.0,97,0.00,,,0.02,weatherlink.com 1.10,2013-02-24 09:13:00,
2013-02-24 04:28:00,35.8,35.0,29.67,NNW,332,3.0,10.0,97,0.00,,,0.02,weatherlink.com 1.10,2013-02-24 09:28:00,
2013-02-24 04:43:00,35.9,35.0,29.68,NNE,33,4.0,10.0,97,0.00,,,0.02,weatherlink.com 1.10,2013-02-24 09:43:00,
2013-02-24 04:58:00,36.0,35.0,29.69,NW,321,6.0,8.0,97,0.00,,,0.02,weatherlink.com 1.10,2013-02-24 09:58:00,
2013-02-24 05:13:00,36.0,35.0,29.70,NE,38,3.0,9.0,97,0.00,,,0.02,weatherlink.com 1.10,2013-02-24 10:13:00,
2013-02-24 05:28:00,36.0,35.0,29.70,NW,324,3.0,8.0,97,0.01,,,0.03,weatherlink.com 1.10,2013-02-24 10:28:00,
2013-02-24 05:43:00,36.0,35.0,29.70,NW,323,3.0,8.0,97,0.01,,,0.03,weatherlink.com 1.10,2013-02-24 10:43:00,
2013-02-24 05:58:00,35.9,35.0,29.69,NE,34,3.0,10.0,97,0.01,,,0.03,weatherlink.com 1.10,2013-02-24 10:58:00,
2013-02-24 06:13:00,35.9,35.0,29.68,NNE,13,2.0,15.0,97,0.02,,,0.04,weatherlink.com 1.10,2013-02-24 11:13:00,
2013-02-24 06:28:00,35.9,35.0,29.68,NNE,33,5.0,10.0,96,0.01,,,0.04,weatherlink.com 1.10,2013-02-24 11:28:00,
2013-02-24 06:43:00,36.0,35.0,29.67,NE,41,5.0,11.0,96,0.01,,,0.04,weatherlink.com 1.10,2013-02-24 11:43:00,
2013-02-24 06:58:00,36.1,35.0,29.66,ENE,61,6.0,12.0,96,0.01,,,0.04,weatherlink.com 1.10,2013-02-24 11:58:00,
2013-02-24 07:13:00,36.3,35.0,29.66,NNE,20,2.0,14.0,96,0.00,,,0.04,weatherlink.com 1.10,2013-02-24 12:13:00,
2013-02-24 07:28:00,36.5,36.0,29.66,NW,321,5.0,14.0,96,0.00,,,0.04,weatherlink.com 1.10,2013-02-24 12:28:00,
2013-02-24 07:43:00,36.5,35.0,29.66,North,353,4.0,13.0,95,0.00,,,0.04,weatherlink.com 1.10,2013-02-24 12:43:00,
2013-02-24 07:59:00,36.6,35.0,29.66,NE,34,3.0,14.0,95,0.00,,,0.04,weatherlink.com 1.10,2013-02-24 12:59:00,
2013-02-24 08:14:00,36.9,36.0,29.66,NW,319,3.0,8.0,95,0.00,,,0.04,weatherlink.com 1.10,2013-02-24 13:14:00,
2013-02-24 08:29:00,37.0,36.0,29.66,WNW,291,9.0,11.0,95,0.00,,,0.04,weatherlink.com 1.10,2013-02-24 13:29:00,
2013-02-24 08:44:00,37.2,36.0,29.66,SSW,210,2.0,12.0,94,0.00,,,0.04,weatherlink.com 1.10,2013-02-24 13:44:00,
2013-02-24 08:59:00,37.6,36.0,29.66,NNE,22,9.0,11.0,94,0.00,,,0.04,weatherlink.com 1.10,2013-02-24 13:59:00,
2013-02-24 09:14:00,37.8,36.0,29.66,NNE,30,5.0,13.0,94,0.00,,,0.04,weatherlink.com 1.10,2013-02-24 14:14:00,
2013-02-24 09:29:00,38.0,37.0,29.65,North,5,7.0,13.0,94,0.00,,,0.04,weatherlink.com 1.10,2013-02-24 14:29:00,
2013-02-24 09:44:00,38.2,37.0,29.65,North,8,4.0,-999.0,94,-99.99,,,0.04,weatherlink.com 1.10,2013-02-24 14:44:00,
2013-02-24 10:00:00,38.5,37.0,29.67,WNW,296,3.0,11.0,94,0.00,,,0.04,weatherlink.com 1.10,2013-02-24 15:00:00,
2013-02-24 10:14:00,38.6,37.0,29.67,North,359,5.0,12.0,93,0.00,,,0.04,weatherlink.com 1.10,2013-02-24 15:14:00,
2013-02-24 10:29:00,38.6,37.0,29.67,NW,314,2.0,11.0,93,0.00,,,0.04,weatherlink.com 1.10,2013-02-24 15:29:00,
2013-02-24 10:44:00,38.8,37.0,29.66,West,281,6.0,7.0,93,0.01,,,0.05,weatherlink.com 1.10,2013-02-24 15:44:00,
2013-02-24 10:59:00,39.0,37.0,29.65,NNE,33,5.0,14.0,93,0.01,,,0.05,weatherlink.com 1.10,2013-02-24 15:59:00,
2013-02-24 11:14:00,38.8,37.0,29.65,NE,34,3.0,11.0,93,0.01,,,0.05,weatherlink.com 1.10,2013-02-24 16:14:00,
2013-02-24 11:29:00,38.7,37.0,29.66,NE,43,3.0,13.0,92,0.02,,,0.06,weatherlink.com 1.10,2013-02-24 16:29:00,
2013-02-24 11:44:00,38.7,37.0,29.66,North,6,4.0,10.0,92,0.01,,,0.06,weatherlink.com 1.10,2013-02-24 16:44:00,
2013-02-24 11:59:00,38.8,37.0,29.66,NNW,333,3.0,11.0,93,0.03,,,0.08,weatherlink.com 1.10,2013-02-24 16:59:00,
2013-02-24 12:14:00,38.8,37.0,29.65,NNE,18,3.0,12.0,94,0.06,,,0.11,weatherlink.com 1.10,2013-02-24 17:14:00,
2013-02-24 12:29:00,38.8,37.0,29.65,ENE,70,2.0,12.0,94,0.06,,,0.12,weatherlink.com 1.10,2013-02-24 17:29:00,
2013-02-24 12:44:00,39.1,38.0,29.65,West,276,4.0,11.0,94,0.06,,,0.12,weatherlink.com 1.10,2013-02-24 17:44:00,
2013-02-24 12:59:00,39.4,38.0,29.64,NW,309,5.0,10.0,93,0.04,,,0.12,weatherlink.com 1.10,2013-02-24 17:59:00,
2013-02-24 13:14:00,39.4,38.0,29.64,WNW,299,4.0,12.0,93,0.01,,,0.12,weatherlink.com 1.10,2013-02-24 18:14:00,
2013-02-24 13:29:00,39.3,37.0,29.65,North,354,7.0,13.0,91,0.00,,,0.12,weatherlink.com 1.10,2013-02-24 18:29:00,
2013-02-24 13:44:00,39.5,37.0,29.64,NE,40,4.0,7.0,92,0.00,,,0.12,weatherlink.com 1.10,2013-02-24 18:44:00,
2013-02-24 13:59:00,39.5,37.0,29.65,NW,326,3.0,9.0,92,0.00,,,0.12,weatherlink.com 1.10,2013-02-24 18:59:00,
2013-02-24 14:14:00,39.5,37.0,29.65,NNE,33,3.0,8.0,92,0.00,,,0.12,weatherlink.com 1.10,2013-02-24 19:14:00,
2013-02-24 14:29:00,39.4,37.0,29.65,NNW,330,3.0,10.0,91,0.00,,,0.12,weatherlink.com 1.10,2013-02-24 19:29:00,
2013-02-24 14:44:00,39.5,37.0,29.66,NNW,343,4.0,8.0,92,0.00,,,0.12,weatherlink.com 1.10,2013-02-24 19:44:00,
2013-02-24 14:59:00,39.3,37.0,29.66,North,1,3.0,9.0,91,0.00,,,0.12,weatherlink.com 1.10,2013-02-24 19:59:00,
2013-02-24 15:14:00,39.6,37.0,29.67,NNW,327,4.0,10.0,90,0.00,,,0.12,weatherlink.com 1.10,2013-02-24 20:14:00,
2013-02-24 15:29:00,38.9,37.0,29.68,NW,315,1.0,8.0,92,0.00,,,0.12,weatherlink.com 1.10,2013-02-24 20:29:00,
2013-02-24 15:44:00,38.6,36.0,29.69,WNW,288,3.0,8.0,90,0.00,,,0.12,weatherlink.com 1.10,2013-02-24 20:44:00,
2013-02-24 15:59:00,38.8,36.0,29.69,ENE,71,3.0,7.0,90,0.00,,,0.12,weatherlink.com 1.10,2013-02-24 20:59:00,
2013-02-24 16:14:00,38.4,36.0,29.69,NNW,339,2.0,7.0,90,0.00,,,0.12,weatherlink.com 1.10,2013-02-24 21:14:00,
2013-02-24 16:29:00,38.0,36.0,29.69,NW,316,3.0,9.0,91,0.01,,,0.13,weatherlink.com 1.10,2013-02-24 21:29:00,
2013-02-24 16:44:00,37.9,36.0,29.70,NW,314,2.0,7.0,92,0.01,,,0.13,weatherlink.com 1.10,2013-02-24 21:44:00,
2013-02-24 16:59:00,37.6,35.0,29.70,NE,37,4.0,6.0,91,0.01,,,0.13,weatherlink.com 1.10,2013-02-24 21:59:00,
2013-02-24 17:14:00,37.4,35.0,29.71,North,6,1.0,9.0,90,0.01,,,0.13,weatherlink.com 1.10,2013-02-24 22:14:00,
2013-02-24 17:29:00,37.2,35.0,29.71,NE,39,1.0,5.0,91,0.00,,,0.13,weatherlink.com 1.10,2013-02-24 22:29:00,
2013-02-24 17:44:00,37.0,35.0,29.73,NNW,333,0.0,6.0,91,0.00,,,0.13,weatherlink.com 1.10,2013-02-24 22:44:00,
2013-02-24 17:59:00,36.8,35.0,29.74,NNE,32,2.0,5.0,91,0.00,,,0.13,weatherlink.com 1.10,2013-02-24 22:59:00,
2013-02-24 18:14:00,36.7,34.0,29.76,WNW,296,5.0,9.0,91,0.00,,,0.13,weatherlink.com 1.10,2013-02-24 23:14:00,
2013-02-24 18:29:00,36.6,34.0,29.77,NNW,330,1.0,5.0,91,0.00,,,0.13,weatherlink.com 1.10,2013-02-24 23:29:00,
2013-02-24 18:44:00,36.4,34.0,29.78,NW,316,1.0,6.0,91,0.00,,,0.13,weatherlink.com 1.10,2013-02-24 23:44:00,
2013-02-24 18:59:00,35.9,34.0,29.78,NNW,345,3.0,3.0,92,0.00,,,0.13,weatherlink.com 1.10,2013-02-24 23:59:00,
2013-02-24 19:14:00,35.6,34.0,29.79,NW,321,3.0,4.0,93,0.00,,,0.13,weatherlink.com 1.10,2013-02-25 00:14:00,
2013-02-24 19:29:00,35.4,34.0,29.80,West,273,2.0,3.0,94,0.00,,,0.13,weatherlink.com 1.10,2013-02-25 00:29:00,
2013-02-24 19:44:00,35.3,34.0,29.81,WNW,294,3.0,6.0,94,0.00,,,0.13,weatherlink.com 1.10,2013-02-25 00:44:00,
2013-02-24 20:00:00,35.1,34.0,29.81,WNW,287,3.0,5.0,94,0.00,,,0.13,weatherlink.com 1.10,2013-02-25 01:00:00,
2013-02-24 20:15:00,34.7,33.0,29.82,WNW,291,5.0,8.0,93,0.01,,,0.14,weatherlink.com 1.10,2013-02-25 01:15:00,
2013-02-24 20:30:00,34.3,33.0,29.83,NNW,342,4.0,7.0,94,0.01,,,0.14,weatherlink.com 1.10,2013-02-25 01:30:00,
2013-02-24 20:45:00,34.0,32.0,29.83,West,260,3.0,6.0,93,0.01,,,0.14,weatherlink.com 1.10,2013-02-25 01:45:00,
2013-02-24 21:00:00,33.7,32.0,29.84,WNW,285,2.0,6.0,94,0.01,,,0.14,weatherlink.com 1.10,2013-02-25 02:00:00,
2013-02-24 21:15:00,33.2,32.0,29.84,WSW,255,6.0,8.0,94,0.01,,,0.15,weatherlink.com 1.10,2013-02-25 02:15:00,
2013-02-24 21:30:00,32.9,31.0,29.84,NW,315,1.0,5.0,94,0.01,,,0.15,weatherlink.com 1.10,2013-02-25 02:30:00,
2013-02-24 21:45:00,32.8,31.0,29.85,West,269,2.0,6.0,94,0.01,,,0.15,weatherlink.com 1.10,2013-02-25 02:45:00,
2013-02-24 22:00:00,32.6,31.0,29.85,WNW,303,1.0,6.0,94,0.01,,,0.15,weatherlink.com 1.10,2013-02-25 03:00:00,
2013-02-24 22:15:00,32.5,31.0,29.85,NE,47,5.0,5.0,94,0.00,,,0.15,weatherlink.com 1.10,2013-02-25 03:15:00,
2013-02-24 22:30:00,32.4,31.0,29.86,West,276,2.0,3.0,95,0.00,,,0.15,weatherlink.com 1.10,2013-02-25 03:30:00,
2013-02-24 22:49:00,32.3,31.0,29.85,WNW,299,1.0,3.0,95,0.00,,,0.15,weatherlink.com 1.10,2013-02-25 03:49:00,
2013-02-24 23:00:00,32.2,31.0,29.86,NW,312,1.0,3.0,95,0.00,,,0.15,weatherlink.com 1.10,2013-02-25 04:00:00,
2013-02-24 23:15:00,32.2,31.0,29.86,West,262,1.0,3.0,95,0.00,,,0.15,weatherlink.com 1.10,2013-02-25 04:15:00,
2013-02-24 23:30:00,32.3,31.0,29.86,NW,317,0.0,4.0,94,0.00,,,0.15,weatherlink.com 1.10,2013-02-25 04:30:00,
2013-02-24 23:45:00,32.2,31.0,29.87,East,85,0.0,3.0,94,0.00,,,0.15,weatherlink.com 1.10,2013-02-25 04:45:00,